Find Starlink 37648

NORAD ID: 100276 Int'l Des: 2026-183 Owner: SPXS Country: US Constellation: starlink operational

現在のビュー

3D地球を読み込み中...

About Starlink 37648

Starlink 37648 (NORAD 100276) is a starlink constellation satellite launched Aug 11, 2026 by SPXS of US. with a mass of 575.00 kg.

次回通過

Passes for default location (London). Set your location on the main map for personalized predictions.

高度履歴

Loading altitude history...

軌道要素

1 A0276U 26183E 26249.65212154 .00091569 00000-0 59454-3 0 9994
2 A0276 53.1571 326.0181 0001128 101.2259 258.8888 15.75259562 4123
Epoch: Sep 6, 2026 • Age: 5 hours

現在のステータス

高度 349.6 km
遠地点 / 近地点 N/A
速度 7.71 km/s
衛星直下点 53.28°N, 117.42°E
打ち上げ日 Aug 11, 2026
運用期間 26 days
タイプ internet

技術仕様

分類 Payload
質量 575.00 kg
乾燥質量 530.00 kg
総質量 575.00 kg
長さ 0.30 m
直径 4.10 m
スパン 29.00 m
形状 Box + pan
製造者 SPXS
バスタイプ Starlink V2MO
フェーズステータス In Orbit
所有者/国 SPXS/US

Most Searched